• In Russia
  • List of Countries
  • For 7 days
  • Water Temperature
  • Weather Map
  • Weather Widgets
  • user-avatar
    Login

    Hourly Weather Tunja

    Today, 23 January, Thursday

    Time Temperature Precipitation Wind Pressure Humidity
    00:00 +10°C° 0 mm 1 mps 548 mmHg 97%
    01:00 +10°C° 0 mm 1 mps 547 mmHg 97%
    02:00 +10°C° 0 mm 1 mps 547 mmHg 97%
    03:00 +10°C° 0 mm 1 mps 547 mmHg 97%
    04:00 +10°C° 0 mm 1 mps 546 mmHg 97%
    05:00 +10°C° 0 mm 1 mps 547 mmHg 96%
    06:00 +10°C° 0 mm 1 mps 548 mmHg 95%
    07:00 +11°C° 0 mm 1 mps 548 mmHg 94%
    08:00 +13°C° 0 mm 1 mps 550 mmHg 87%
    09:00 +15°C° 0 mm 1 mps 551 mmHg 79%
    10:00 +18°C° 0 mm 1 mps 552 mmHg 71%
    11:00 +18°C° 0.3 mm 1 mps 552 mmHg 70%
    12:00 +19°C° 0.3 mm 1 mps 552 mmHg 69%
    13:00 +20°C° 0.3 mm 1 mps 551 mmHg 67%
    14:00 +19°C° 1.5 mm 1 mps 551 mmHg 73%
    15:00 +18°C° 1.5 mm 1 mps 550 mmHg 79%
    16:00 +16°C° 1.5 mm 1 mps 549 mmHg 85%
    17:00 +15°C° 0.6 mm 1 mps 548 mmHg 89%
    18:00 +14°C° 0.6 mm 1 mps 548 mmHg 93%
    19:00 +12°C° 0.6 mm 1 mps 547 mmHg 97%
    20:00 +12°C° 0.1 mm 1 mps 548 mmHg 97%
    21:00 +12°C° 0.1 mm 1 mps 548 mmHg 97%
    22:00 +11°C° 0.1 mm 1 mps 548 mmHg 97%
    23:00 +11°C° 0 mm 1 mps 548 mmHg 97%

    Tomorrow, 24 January, Friday

    Time Temperature Precipitation Wind Pressure Humidity
    00:00 +11°C° 0 mm 1 mps 548 mmHg 97%
    01:00 +10°C° 0 mm 1 mps 547 mmHg 97%
    02:00 +11°C° 0 mm 1 mps 547 mmHg 97%
    03:00 +11°C° 0 mm 1 mps 547 mmHg 97%
    04:00 +11°C° 0 mm 1 mps 547 mmHg 97%
    05:00 +11°C° 0 mm 1 mps 548 mmHg 95%
    06:00 +12°C° 0 mm 1 mps 549 mmHg 94%
    07:00 +12°C° 0 mm 1 mps 549 mmHg 92%
    08:00 +14°C° 0 mm 1 mps 551 mmHg 84%
    09:00 +16°C° 0 mm 1 mps 552 mmHg 75%
    10:00 +19°C° 0 mm 1 mps 553 mmHg 66%
    11:00 +20°C° 0.2 mm 1 mps 553 mmHg 65%
    12:00 +20°C° 0.2 mm 1 mps 552 mmHg 63%
    13:00 +21°C° 0.2 mm 1 mps 552 mmHg 62%
    14:00 +20°C° 0.9 mm 1 mps 551 mmHg 68%
    15:00 +19°C° 0.9 mm 1 mps 550 mmHg 73%
    16:00 +18°C° 0.9 mm 1 mps 549 mmHg 79%
    17:00 +16°C° 0.9 mm 1 mps 549 mmHg 85%
    18:00 +14°C° 0.9 mm 1 mps 548 mmHg 91%
    19:00 +13°C° 0.9 mm 1 mps 548 mmHg 97%
    20:00 +12°C° 0.4 mm 0 mps 549 mmHg 97%
    21:00 +12°C° 0.4 mm 0 mps 549 mmHg 97%
    22:00 +12°C° 0.4 mm 0 mps 550 mmHg 97%
    23:00 +11°C° 0.3 mm 0 mps 549 mmHg 96%

    Day after tomorrow, 25 January, Saturday

    Time Temperature Precipitation Wind Pressure Humidity
    00:00 +11°C° 0.3 mm 0 mps 549 mmHg 96%
    01:00 +11°C° 0.3 mm 0 mps 549 mmHg 95%
    02:00 +10°C° 0.1 mm 0 mps 548 mmHg 95%
    03:00 +10°C° 0.1 mm 0 mps 548 mmHg 95%
    04:00 +10°C° 0.1 mm 0 mps 547 mmHg 96%
    05:00 +10°C° 0 mm 0 mps 548 mmHg 94%
    06:00 +10°C° 0 mm 0 mps 549 mmHg 92%
    07:00 +11°C° 0 mm 0 mps 549 mmHg 91%
    08:00 +13°C° 0 mm 0 mps 551 mmHg 85%
    09:00 +14°C° 0 mm 0 mps 552 mmHg 78%
    10:00 +16°C° 0 mm 0 mps 553 mmHg 72%
    11:00 +19°C° 0.3 mm 1 mps 553 mmHg 72%
    12:00 +19°C° 0.3 mm 1 mps 552 mmHg 71%
    13:00 +19°C° 0.3 mm 1 mps 552 mmHg 71%
    14:00 +19°C° 1.2 mm 1 mps 551 mmHg 76%
    15:00 +18°C° 1.2 mm 1 mps 550 mmHg 81%
    16:00 +16°C° 1.2 mm 1 mps 549 mmHg 86%
    17:00 +15°C° 0.6 mm 1 mps 549 mmHg 90%
    18:00 +13°C° 0.6 mm 0 mps 549 mmHg 93%
    19:00 +12°C° 0.6 mm 0 mps 549 mmHg 97%
    20:00 +12°C° 0.2 mm 0 mps 549 mmHg 97%
    21:00 +12°C° 0.2 mm 0 mps 549 mmHg 98%
    22:00 +12°C° 0.2 mm 0 mps 550 mmHg 98%
    23:00 +12°C° 0.2 mm 0 mps 549 mmHg 98%

    26 January, Sunday

    Time Temperature Precipitation Wind Pressure Humidity
    00:00 +12°C° 0.2 mm 0 mps 549 mmHg 98%
    01:00 +12°C° 0.2 mm 0 mps 549 mmHg 98%
    02:00 +12°C° 0.3 mm 0 mps 549 mmHg 98%
    03:00 +12°C° 0.3 mm 0 mps 549 mmHg 98%
    04:00 +12°C° 0.3 mm 0 mps 548 mmHg 98%
    05:00 +12°C° 0.3 mm 0 mps 549 mmHg 97%
    06:00 +12°C° 0.3 mm 0 mps 549 mmHg 97%
    07:00 +12°C° 0.3 mm 0 mps 549 mmHg 96%
    08:00 +12°C° 0.4 mm 0 mps 550 mmHg 93%
    09:00 +13°C° 0.4 mm 0 mps 551 mmHg 90%
    10:00 +15°C° 0.4 mm 1 mps 551 mmHg 87%
    11:00 +16°C° 0.5 mm 1 mps 551 mmHg 85%
    12:00 +16°C° 0.5 mm 1 mps 551 mmHg 82%
    13:00 +18°C° 0.5 mm 1 mps 551 mmHg 80%
    14:00 +18°C° 1 mm 1 mps 550 mmHg 83%
    15:00 +16°C° 1 mm 1 mps 550 mmHg 86%
    16:00 +15°C° 1 mm 1 mps 549 mmHg 88%
    17:00 +14°C° 0.5 mm 1 mps 549 mmHg 91%
    18:00 +12°C° 0.5 mm 0 mps 549 mmHg 94%
    19:00 +11°C° 0.5 mm 0 mps 549 mmHg 97%
    20:00 +11°C° 0.1 mm 0 mps 549 mmHg 98%
    21:00 +11°C° 0.1 mm 0 mps 549 mmHg 98%
    22:00 +10°C° 0.1 mm 0 mps 549 mmHg 98%
    23:00 +10°C° 0 mm 0 mps 549 mmHg 98%

    27 January, Monday

    Time Temperature Precipitation Wind Pressure Humidity
    00:00 +10°C° 0 mm 0 mps 549 mmHg 97%
    01:00 +10°C° 0 mm 0 mps 548 mmHg 97%
    02:00 +10°C° 0 mm 0 mps 548 mmHg 97%
    03:00 +10°C° 0 mm 0 mps 548 mmHg 96%
    04:00 +10°C° 0 mm 0 mps 547 mmHg 96%
    05:00 +10°C° 0 mm 0 mps 548 mmHg 95%
    06:00 +10°C° 0 mm 0 mps 549 mmHg 94%
    07:00 +10°C° 0 mm 0 mps 549 mmHg 92%
    08:00 +12°C° 0 mm 0 mps 550 mmHg 86%
    09:00 +14°C° 0 mm 0 mps 552 mmHg 80%
    10:00 +16°C° 0 mm 0 mps 553 mmHg 74%
    11:00 +18°C° 0.4 mm 1 mps 552 mmHg 73%
    12:00 +19°C° 0.4 mm 1 mps 552 mmHg 73%
    13:00 +19°C° 0.4 mm 1 mps 552 mmHg 72%
    14:00 +18°C° 1.1 mm 1 mps 551 mmHg 76%
    15:00 +18°C° 1.1 mm 1 mps 550 mmHg 81%
    16:00 +16°C° 1.1 mm 1 mps 549 mmHg 85%
    17:00 +15°C° 0.6 mm 1 mps 549 mmHg 89%
    18:00 +12°C° 0.6 mm 0 mps 549 mmHg 93%
    19:00 +11°C° 0.6 mm 0 mps 548 mmHg 97%
    20:00 +11°C° 0 mm 0 mps 548 mmHg 97%
    21:00 +10°C° 0 mm 0 mps 549 mmHg 97%
    22:00 +10°C° 0 mm 0 mps 549 mmHg 97%
    23:00 +10°C° 0 mm 0 mps 548 mmHg 97%

    28 January, Tuesday

    Time Temperature Precipitation Wind Pressure Humidity
    00:00 +10°C° 0 mm 0 mps 548 mmHg 97%
    01:00 +10°C° 0 mm 0 mps 548 mmHg 97%
    02:00 +10°C° 0 mm 1 mps 548 mmHg 97%
    03:00 +10°C° 0 mm 1 mps 548 mmHg 96%
    04:00 +10°C° 0 mm 1 mps 547 mmHg 96%
    05:00 +10°C° 0 mm 1 mps 548 mmHg 95%
    06:00 +11°C° 0 mm 1 mps 548 mmHg 94%
    07:00 +11°C° 0 mm 1 mps 549 mmHg 93%
    08:00 +13°C° 0 mm 1 mps 551 mmHg 83%
    09:00 +16°C° 0 mm 1 mps 552 mmHg 74%
    10:00 +19°C° 0 mm 1 mps 554 mmHg 65%
    11:00 +20°C° 0.2 mm 1 mps 553 mmHg 64%
    12:00 +20°C° 0.2 mm 1 mps 553 mmHg 63%
    13:00 +20°C° 0.2 mm 1 mps 552 mmHg 62%
    14:00 +19°C° 0.9 mm 1 mps 551 mmHg 69%
    15:00 +18°C° 0.9 mm 1 mps 550 mmHg 75%
    16:00 +16°C° 0.9 mm 1 mps 549 mmHg 82%
    17:00 +15°C° 0.5 mm 1 mps 549 mmHg 87%
    18:00 +12°C° 0.5 mm 0 mps 548 mmHg 92%
    19:00 +11°C° 0.5 mm 0 mps 548 mmHg 97%
    20:00 +11°C° 0.1 mm 0 mps 548 mmHg 97%
    21:00 +11°C° 0.1 mm 0 mps 549 mmHg 97%
    22:00 +12°C° 0.1 mm 1 mps 549 mmHg 97%
    23:00 +12°C° 0 mm 1 mps 549 mmHg 97%
    Show more